EFW6PL EHRD-EGGW

Flight info

Callsign EFW6PL
Flight time 0h 40m
Altitude 24000
Route ABNED L980 XAMAN
Aircraft A320/M-SDE3FGHIRWY/LB1

Departure

Time 2026-05-07 08:59
Airport Rotterdam The Hague Airport (EHRD)

Arrival

Time 2026-05-07 09:40
Airport London Luton Airport (EGGW)
Time Latitude Longitude Altitude Speed Heading
2026-05-07 08:47 51.95015 4.43506 -6 ft 0 kts 327°
2026-05-07 08:56 51.95025 4.43496 -6 ft 4 kts 327°
2026-05-07 08:56 51.95058 4.43503 -6 ft 6 kts 39°
2026-05-07 08:56 51.95088 4.43569 -6 ft 9 kts 44°
2026-05-07 08:57 51.95146 4.43540 -6 ft 11 kts 327°
2026-05-07 08:57 51.95217 4.43465 -5 ft 13 kts 327°
2026-05-07 08:57 51.95220 4.43345 -5 ft 14 kts 239°
2026-05-07 08:57 51.95163 4.43205 -5 ft 16 kts 237°
2026-05-07 08:58 51.95114 4.43041 -5 ft 13 kts 247°
2026-05-07 08:58 51.95137 4.42911 -5 ft 14 kts 324°
2026-05-07 08:58 51.95214 4.42856 -5 ft 11 kts 18°
2026-05-07 08:58 51.95276 4.42997 -5 ft 34 kts 56°
2026-05-07 08:59 51.95542 4.43659 -5 ft 103 kts 57°
2026-05-07 08:59 51.96035 4.44885 37 ft 149 kts 58°
2026-05-07 08:59 51.96550 4.46274 741 ft 140 kts 56°
2026-05-07 08:59 51.97044 4.47632 1400 ft 140 kts 59°
2026-05-07 09:00 51.97536 4.49025 1927 ft 149 kts 59°
2026-05-07 09:00 51.98126 4.50473 2405 ft 159 kts 48°
2026-05-07 09:00 51.99029 4.51617 3024 ft 168 kts 26°
2026-05-07 09:00 52.00180 4.52131 3631 ft 178 kts
2026-05-07 09:01 52.01436 4.51845 4214 ft 190 kts 342°
2026-05-07 09:01 52.02605 4.50657 4664 ft 210 kts 316°
2026-05-07 09:01 52.03395 4.48532 5027 ft 235 kts 284°
2026-05-07 09:01 52.03366 4.45875 5795 ft 241 kts 252°
2026-05-07 09:02 52.02504 4.43547 6677 ft 244 kts 221°
2026-05-07 09:02 52.01158 4.41857 7593 ft 245 kts 216°
2026-05-07 09:02 51.99703 4.40120 8536 ft 247 kts 216°
2026-05-07 09:02 51.98386 4.38547 9375 ft 250 kts 217°
2026-05-07 09:03 51.97041 4.36752 10209 ft 253 kts 230°
2026-05-07 09:03 51.96203 4.34230 10796 ft 264 kts 256°
2026-05-07 09:03 51.95899 4.31156 11089 ft 288 kts 263°
2026-05-07 09:03 51.95628 4.27801 11335 ft 312 kts 263°
2026-05-07 09:04 51.95343 4.24178 11530 ft 336 kts 263°
2026-05-07 09:04 51.95034 4.20337 11940 ft 349 kts 263°
2026-05-07 09:04 51.94711 4.16407 12606 ft 354 kts 263°
2026-05-07 09:04 51.94378 4.12428 13321 ft 359 kts 262°
2026-05-07 09:05 51.94032 4.08406 14065 ft 362 kts 262°
2026-05-07 09:05 51.93662 4.04344 14719 ft 365 kts 262°
2026-05-07 09:05 51.93272 4.00262 15353 ft 368 kts 261°
2026-05-07 09:05 51.92867 3.96146 15963 ft 372 kts 261°
2026-05-07 09:06 51.92453 3.91983 16573 ft 376 kts 261°
2026-05-07 09:06 51.92038 3.87784 17212 ft 379 kts 261°
2026-05-07 09:06 51.91620 3.83549 17864 ft 382 kts 261°
2026-05-07 09:06 51.91197 3.79270 18492 ft 387 kts 261°
2026-05-07 09:07 51.90766 3.74959 19052 ft 391 kts 261°
2026-05-07 09:07 51.90332 3.70594 19648 ft 394 kts 261°
2026-05-07 09:07 51.89893 3.66192 20249 ft 397 kts 261°
2026-05-07 09:07 51.89455 3.61763 20847 ft 400 kts 261°
2026-05-07 09:08 51.89010 3.57310 21372 ft 403 kts 261°
2026-05-07 09:08 51.88558 3.52807 21861 ft 407 kts 261°
2026-05-07 09:08 51.88103 3.48271 22383 ft 409 kts 261°
2026-05-07 09:08 51.87644 3.43721 22900 ft 412 kts 261°
2026-05-07 09:09 51.87179 3.39128 23379 ft 415 kts 261°
2026-05-07 09:09 51.86706 3.34499 23791 ft 418 kts 261°
2026-05-07 09:09 51.86226 3.29846 24035 ft 420 kts 261°
2026-05-07 09:09 51.85747 3.25211 24085 ft 428 kts 261°
2026-05-07 09:10 51.85245 3.20363 24087 ft 437 kts 261°
2026-05-07 09:10 51.84757 3.15492 24087 ft 439 kts 262°
2026-05-07 09:10 51.84367 3.10649 24088 ft 440 kts 264°
2026-05-07 09:10 51.84054 3.05736 24087 ft 439 kts 265°
2026-05-07 09:11 51.83774 3.00756 24089 ft 440 kts 265°
2026-05-07 09:11 51.83506 2.95887 24089 ft 440 kts 265°
2026-05-07 09:11 51.83220 2.90959 24087 ft 440 kts 264°
2026-05-07 09:11 51.82912 2.86031 24089 ft 440 kts 264°
2026-05-07 09:12 51.82589 2.81121 24087 ft 440 kts 264°
2026-05-07 09:12 51.82253 2.76194 24080 ft 440 kts 264°
2026-05-07 09:12 51.81910 2.71277 24080 ft 440 kts 263°
2026-05-07 09:12 51.81567 2.66372 24081 ft 439 kts 263°
2026-05-07 09:13 51.81225 2.61459 24076 ft 439 kts 263°
2026-05-07 09:13 51.80883 2.56559 24078 ft 440 kts 263°
2026-05-07 09:13 51.80542 2.51650 23919 ft 439 kts 264°
2026-05-07 09:13 51.80202 2.46754 23687 ft 438 kts 263°
2026-05-07 09:14 51.79861 2.41864 23414 ft 437 kts 263°
2026-05-07 09:14 51.79516 2.36993 23135 ft 436 kts 263°
2026-05-07 09:14 51.79170 2.32143 22858 ft 433 kts 263°
2026-05-07 09:14 51.78999 2.28936 22674 ft 432 kts 268°
2026-05-07 09:15 51.79143 2.24110 22305 ft 428 kts 277°
2026-05-07 09:15 51.79789 2.19454 21667 ft 422 kts 288°
2026-05-07 09:15 51.80920 2.15084 21223 ft 422 kts 297°
2026-05-07 09:15 51.82777 2.09593 20577 ft 418 kts 298°
2026-05-07 09:16 51.83718 2.06801 20246 ft 417 kts 298°
2026-05-07 09:16 51.85093 2.02693 19767 ft 415 kts 298°
2026-05-07 09:16 51.86456 1.98594 19286 ft 411 kts 297°
2026-05-07 09:16 51.87800 1.94535 18799 ft 409 kts 297°
2026-05-07 09:17 51.89144 1.90496 18318 ft 405 kts 299°
2026-05-07 09:17 51.90718 1.86748 17897 ft 401 kts 308°
2026-05-07 09:17 51.92522 1.83290 17797 ft 402 kts 309°
2026-05-07 09:17 51.94324 1.79817 17705 ft 402 kts 309°
2026-05-07 09:18 51.96099 1.76380 17609 ft 402 kts 309°
2026-05-07 09:18 51.97890 1.72900 17497 ft 402 kts 309°
2026-05-07 09:18 51.99677 1.69425 17376 ft 400 kts 309°
2026-05-07 09:18 52.01457 1.65965 17239 ft 399 kts 309°
2026-05-07 09:19 52.03236 1.62508 17106 ft 398 kts 309°
2026-05-07 09:19 52.05011 1.59054 16981 ft 399 kts 309°
2026-05-07 09:19 52.06788 1.55591 16846 ft 399 kts 309°
2026-05-07 09:19 52.08561 1.52131 16712 ft 398 kts 309°
2026-05-07 09:20 52.10329 1.48670 16582 ft 397 kts 309°
2026-05-07 09:20 52.12091 1.45215 16449 ft 396 kts 309°
2026-05-07 09:20 52.13840 1.41753 16314 ft 396 kts 307°
2026-05-07 09:20 52.15303 1.37971 16194 ft 395 kts 296°
2026-05-07 09:21 52.16312 1.33825 16061 ft 393 kts 286°
2026-05-07 09:21 52.16845 1.29472 15932 ft 392 kts 277°
2026-05-07 09:21 52.17184 1.25061 15802 ft 392 kts 277°
2026-05-07 09:21 52.17528 1.20666 15670 ft 391 kts 277°
2026-05-07 09:22 52.17875 1.16283 15538 ft 389 kts 277°
2026-05-07 09:22 52.18219 1.11922 15416 ft 388 kts 277°
2026-05-07 09:22 52.18556 1.07609 15292 ft 388 kts 277°
2026-05-07 09:22 52.18899 1.03197 15161 ft 388 kts 277°
2026-05-07 09:23 52.19233 0.98894 15037 ft 387 kts 277°
2026-05-07 09:23 52.19568 0.94543 14906 ft 386 kts 277°
2026-05-07 09:23 52.19901 0.90182 14797 ft 376 kts 277°
2026-05-07 09:23 52.20215 0.86059 14672 ft 358 kts 277°
2026-05-07 09:24 52.20512 0.82116 14543 ft 342 kts 277°
2026-05-07 09:24 52.20792 0.78387 14432 ft 329 kts 277°
2026-05-07 09:24 52.21061 0.74765 14302 ft 316 kts 277°
2026-05-07 09:24 52.21319 0.71260 14139 ft 307 kts 277°
2026-05-07 09:25 52.21571 0.67826 13892 ft 302 kts 277°
2026-05-07 09:25 52.21817 0.64494 13996 ft 296 kts 277°
2026-05-07 09:25 52.22065 0.61132 13858 ft 300 kts 277°
2026-05-07 09:25 52.22312 0.57776 13692 ft 298 kts 277°
2026-05-07 09:26 52.22560 0.54426 13527 ft 297 kts 277°
2026-05-07 09:26 52.22806 0.51081 13372 ft 297 kts 277°
2026-05-07 09:26 52.23051 0.47735 13201 ft 297 kts 277°
2026-05-07 09:26 52.23292 0.44393 13037 ft 296 kts 277°
2026-05-07 09:27 52.23534 0.41064 12696 ft 294 kts 277°
2026-05-07 09:27 52.23556 0.37748 12322 ft 293 kts 260°
2026-05-07 09:27 52.22233 0.31485 11595 ft 291 kts 250°
2026-05-07 09:28 52.21517 0.28398 11249 ft 290 kts 249°
2026-05-07 09:28 52.20801 0.25326 10895 ft 289 kts 249°
2026-05-07 09:28 52.20092 0.22295 10556 ft 289 kts 249°
2026-05-07 09:28 52.19371 0.19217 10223 ft 288 kts 249°
2026-05-07 09:29 52.18660 0.16175 9886 ft 287 kts 249°
2026-05-07 09:29 52.17952 0.13145 9540 ft 285 kts 249°
2026-05-07 09:29 52.17250 0.10131 9200 ft 283 kts 249°
2026-05-07 09:29 52.16541 0.07101 8861 ft 282 kts 248°
2026-05-07 09:30 52.15853 0.04170 8539 ft 280 kts 248°
2026-05-07 09:30 52.15150 0.01182 8199 ft 278 kts 248°
2026-05-07 09:30 52.14468 -0.01714 8027 ft 270 kts 248°
2026-05-07 09:30 52.13816 -0.04487 7903 ft 262 kts 248°
2026-05-07 09:31 52.13177 -0.07208 7767 ft 251 kts 248°
2026-05-07 09:31 52.12562 -0.09815 7425 ft 243 kts 247°
2026-05-07 09:31 52.11958 -0.12365 6957 ft 241 kts 247°
2026-05-07 09:31 52.11358 -0.14896 6495 ft 239 kts 247°
2026-05-07 09:32 52.10765 -0.17408 5980 ft 237 kts 247°
2026-05-07 09:32 52.10094 -0.19855 5582 ft 236 kts 237°
2026-05-07 09:32 52.09146 -0.22003 5331 ft 233 kts 229°
2026-05-07 09:32 52.08081 -0.23928 5195 ft 224 kts 217°
2026-05-07 09:33 52.06787 -0.25243 4997 ft 217 kts 201°
2026-05-07 09:33 52.05340 -0.25791 4720 ft 213 kts 178°
2026-05-07 09:33 52.03931 -0.25236 4484 ft 208 kts 150°
2026-05-07 09:33 52.02819 -0.23778 4234 ft 204 kts 137°
2026-05-07 09:34 52.01795 -0.22192 4101 ft 202 kts 136°
2026-05-07 09:34 52.00788 -0.20624 3967 ft 197 kts 136°
2026-05-07 09:34 51.99823 -0.19122 3855 ft 188 kts 136°
2026-05-07 09:34 51.98885 -0.17664 3747 ft 186 kts 136°
2026-05-07 09:35 51.97955 -0.16218 3627 ft 185 kts 137°
2026-05-07 09:35 51.97034 -0.14792 3355 ft 181 kts 137°
2026-05-07 09:35 51.96130 -0.13392 3097 ft 179 kts 136°
2026-05-07 09:35 51.95186 -0.12087 3002 ft 178 kts 150°
2026-05-07 09:36 51.94029 -0.11498 3006 ft 179 kts 175°
2026-05-07 09:36 51.92796 -0.11816 3009 ft 182 kts 201°
2026-05-07 09:36 51.91776 -0.13036 3010 ft 185 kts 229°
2026-05-07 09:36 51.91223 -0.14888 3011 ft 182 kts 251°
2026-05-07 09:37 51.90890 -0.16859 2888 ft 180 kts 251°
2026-05-07 09:37 51.90561 -0.18797 2677 ft 177 kts 252°
2026-05-07 09:37 51.90233 -0.20719 2448 ft 177 kts 252°
2026-05-07 09:37 51.89908 -0.22621 2207 ft 173 kts 252°
2026-05-07 09:38 51.89592 -0.24467 1958 ft 165 kts 251°
2026-05-07 09:38 51.89295 -0.26199 1756 ft 152 kts 251°
2026-05-07 09:38 51.89024 -0.27783 1552 ft 143 kts 252°
2026-05-07 09:38 51.88762 -0.29302 1350 ft 140 kts 251°
2026-05-07 09:39 51.88501 -0.30818 1150 ft 139 kts 252°
2026-05-07 09:39 51.88239 -0.32338 940 ft 139 kts 252°
2026-05-07 09:39 51.87982 -0.33824 735 ft 138 kts 252°
2026-05-07 09:39 51.87724 -0.35314 572 ft 138 kts 252°
2026-05-07 09:40 51.87478 -0.36736 527 ft 110 kts 253°
2026-05-07 09:40 51.87351 -0.37497 522 ft 46 kts 256°
2026-05-07 09:40 51.87276 -0.37921 524 ft 30 kts 253°
2026-05-07 09:40 51.87292 -0.38117 522 ft 6 kts 353°
2026-05-07 09:41 51.87338 -0.38092 522 ft 8 kts 21°
2026-05-07 09:41 51.87396 -0.38044 524 ft 10 kts 37°
2026-05-07 09:41 51.87437 -0.37926 523 ft 16 kts 75°
2026-05-07 09:41 51.87469 -0.37731 523 ft 19 kts 75°
2026-05-07 09:42 51.87505 -0.37520 522 ft 19 kts 65°
2026-05-07 09:42 51.87624 -0.37462 523 ft 20 kts 347°
2026-05-07 09:42 51.87721 -0.37637 519 ft 24 kts 293°
2026-05-07 09:42 51.87789 -0.37883 523 ft 25 kts 295°
2026-05-07 09:43 51.87918 -0.38019 523 ft 19 kts
2026-05-07 09:43 51.88011 -0.37924 523 ft 11 kts 84°
2026-05-07 09:43 51.87992 -0.37871 523 ft 0 kts 132°